Meteo Giornale » Osservazioni meteo Sud Africa » Vereeniging
ore: 22:00 - Osservazioni Meteo Vereeniging
Lat. 26° 34' S Lon. 27° 57' E Alt. 1483 metri s.l.m.
15 °C
Sereno
Temp. 24 Ore
10 °C
26 °C
Nord
5.5 Km/h
Dew point 5 °C
Umidità 51 %
Visibilità 0 Km
Il sole sorge alle ore 06:21
Il sole tramonta alle ore 17:55
| Data e Ora | Cielo e Fenomeni | T °C | DP °C | Um. % | Pres. hPa | Vis. km | Vento km/h | |
|---|---|---|---|---|---|---|---|---|
| Oggi h: 22:00 | Sereno | 15 | 5 | 51 | 1030 | 0 | N 5.5 | |
| Oggi h: 21:00 | Sereno | 17 | 5 | 45 | 1030 | 0 | N 5.5 | |
| Oggi h: 20:00 | Sereno | 17 | 4 | 41 | 1029 | 0 | N 1.8 | |
| Oggi h: 19:00 | Sereno | 20 | 3 | 32 | 1029 | 0 | N 5.5 | |
| Oggi h: 18:00 | Sereno | 22 | 3 | 28 | 1028 | 0 | E/SE 9.3 | |
| Oggi h: 17:00 | Sereno | 24 | 3 | 25 | 1028 | 0 | E 16.7 | |
| Oggi h: 16:00 | Sereno | 26 | 1 | 19 | 1027 | 0 | SE 9.3 | |
| Oggi h: 15:00 | Sereno | 26 | 1 | 19 | 1027 | 0 | N 5.5 | |
| Oggi h: 14:00 | Sereno | 26 | 1 | 19 | 1028 | 0 | S 9.3 | |
| Oggi h: 13:00 | Sereno | 25 | 1 | 20 | 1028 | 0 | O 9.3 | |
| Oggi h: 12:00 | Sereno | 24 | 2 | 23 | 1029 | 0 | O/SO 9.3 | |
| Oggi h: 11:00 | Sereno | 24 | 1 | 22 | 1029 | 0 | O 11.1 | |
| Oggi h: 10:00 | Sereno | 22 | 2 | 26 | 1029 | 0 | O/NO 7.4 | |
| Oggi h: 09:00 | Sereno | 20 | 2 | 30 | 1029 | 0 | N 11.1 | |
| Oggi h: 08:00 | Sereno | 15 | 3 | 44 | 1029 | 0 | N 7.4 | |
| Oggi h: 07:00 | Sereno | 10 | 2 | 57 | 1027 | 0 | N/NO 7.4 | |
| Oggi h: 06:00 | Sereno | 11 | 2 | 53 | 1027 | 0 | N 3.7 | |
| Oggi h: 05:00 | Sereno | 11 | 2 | 53 | 1027 | 0 | NO 9.3 | |
| Oggi h: 04:00 | Sereno | 10 | 3 | 61 | 1026 | 0 | O 7.4 | |
| Oggi h: 03:00 | Sereno | 10 | 4 | 66 | 1026 | 0 | N 3.7 | |
| Oggi h: 02:00 | Sereno | 11 | 2 | 53 | 1027 | 0 | O/NO 7.4 | |
| Oggi h: 01:00 | Sereno | 10 | 3 | 61 | 1027 | 0 | N 5.5 | |
| Oggi h: 00:00 | Sereno | 11 | 3 | 57 | 1028 | 0 | N/NO 9.3 | |
| Ieri h: 23:00 | Sereno | 13 | 3 | 50 | 1028 | 0 | O 7.4 | |



